Погода в Валамазе

Россия / Удмуртская Республика     57°27′18″N   52°03′53″E
темп.,
°C
ветер,
м/с
пор.,
м/с
влажн.,
%
обл.,
%
осадки,
мм/ч
давл.,
гПа
погр.,
м
16 июня, ср
ср1601:00+15ююз1195100 0.0 101314
04:00+16юв229575 0.0 101327
07:00+20юв288799 0.0 1011252
10:00+27ююв465198 0.0 1010937
13:00+30ю57366 0.0 10071849
16:00+30ю573546 0.0 10062546
19:00+26ю48566 0.0 1004643
22:00+18сз61295100 7.1 1006402
17 июня, чт
чт1701:00+16ссз4119686 4.5 1007424
04:00+12с413923 4.5 1010453
07:00+14ссз411781 0.0 1011555
10:00+18ссз58520 0.0 10131331
13:00+20ссз68415 0.0 10132320
16:00+18сз5850100 0.0 10141572
19:00+16ссз586453 0.1 1016901
22:00+11ссз4118010 0.1 1018578
18 июня, пт
пт1801:00+10ссз411885 0.0 1020520
04:00+8ссз3109817 0.0 1022323
07:00+12с35725 0.0 1023420
10:00+17ссз34485 0.0 10241226
13:00+19сз454218 0.0 10241939
16:00+20сз454344 0.0 10241771
19:00+18зсз365699 0.0 10231153
22:00+13з2672100 0.0 1023111
19 июня, сб
сб1901:00+12зюз287721 0.0 1023142
04:00+11з288560 0.0 1023167
07:00+15зюз396759 0.0 1023295
10:00+22з575218 0.0 1021864
13:00+26зсз58445 0.0 10201751
16:00+27зсз69450 0.0 10192196
19:00+25зсз49580 0.0 10181139
22:00+19з39830 0.0 1019165
20 июня, вс
вс2001:00+17зсз39850 0.0 1019178
04:00+16зсз28850 0.0 1020146
07:00+21зсз35700 0.0 1021245
10:00+26зсз35510 0.0 1020747
13:00+29сз46400 0.0 10201847
16:00+29сз45410 0.0 10201923
19:00+26з23620 0.0 102099
22:00+21зюз38815 0.0 1020132